Flag for Burkina Faso Weather past 2 weeks in Koudougou, Burkina Faso

Now
84 °F

Clear.


Feels Like: 81 °F
Forecast: 68 / 96 °F
Wind: 9 mph from East

Location: Ouagadougou Airport

Current Time: Jan 25, 2015 at 11:06:43 AM

Latest Report: Jan 25, 2015 at 10:00 AM


Visibility: 5 mi

Pressure: 29.92 "Hg

Humidity: 10%

Dew point: 23 °F

Location of KoudougouLocation

Historic Weather in Koudougou — Graph

°F

Koudougou temperature yesterday

Maximum temperature yesterday: 95 °F (at 4:00 PM)
Minimum temperature yesterday: 68 °F (at 7:00 AM)
Average temperature yesterday: 81 °F

Past Weeks' High & Low Weather Summary

 TemperatureHumidityPressure
High97 °F (Jan 21, 3:00 PM)45% (Jan 20, 6:00 AM)30.18 "Hg (Jan 20, 6:00 AM)
Low55 °F (Jan 14, 7:00 AM)8% (Jan 19, 3:00 PM)29.83 "Hg (Jan 20, 2:00 PM)
Average76 °F20%29.98 "Hg
* Reported Jan 10 10:00 AM — Jan 25 10:00 AM, Koudougou, Weather by CustomWeather, © 2014

Note: Actual official high and low records may vary slightly from our data, if they occured in-between our weather recording intervals... More about our weather records

Advertising

Koudougou weather history for previous 24 hours

 ConditionsComfort  
Time TempWeatherWind HumidityBarometerVisibility
10:00 AM
Jan 25
84 °FClear.9 mph10%29.92 "Hg5 mi
9:00 AM79 °FClear.5 mph12%29.92 "Hg4 mi
8:00 AM73 °FClear.1 mph17%29.89 "Hg5 mi
7:00 AM68 °FClear.5 mph21%29.89 "Hg5 mi
6:00 AM68 °FClear.3 mph24%29.86 "Hg10 mi
5:00 AM72 °FClear.5 mph20%29.86 "Hg10 mi
4:00 AM72 °FClear.5 mph22%29.86 "Hg10 mi
3:00 AM73 °FClear.5 mph20%29.89 "Hg10 mi
2:00 AM75 °FClear.6 mph19%29.89 "Hg10 mi
1:00 AM77 °FClear.7 mph19%29.89 "Hg10 mi
12:00 AM79 °FClear.6 mph20%29.92 "Hg10 mi
11:00 PM
Jan 24
77 °FClear.3 mph22%29.92 "Hg5 mi
9:00 PM81 °FClear.No wind23%29.92 "Hg5 mi
8:00 PM82 °FClear.2 mph20%29.89 "Hg5 mi
7:00 PM84 °FClear.2 mph19%29.86 "Hg4 mi
6:00 PM88 °FClear.5 mph16%29.86 "Hg4 mi
5:00 PM93 °FSunny.7 mph11%29.83 "Hg10 mi
4:00 PM95 °FPassing clouds.5 mph11%29.83 "HgN/A
3:00 PM93 °FPassing clouds.8 mph11%29.83 "HgN/A
2:00 PM93 °FPassing clouds.7 mph12%29.86 "HgN/A
1:00 PM93 °FPassing clouds.7 mph11%29.89 "HgN/A
12:00 PM90 °FPassing clouds.9 mph12%29.92 "HgN/A
11:00 AM86 °FPassing clouds.8 mph13%29.95 "HgN/A
Weather by CustomWeather, © 2014

See weather overviewHow to use our weather pages